Overview Statistics Trail Chart Weather Telemetry Raw packets
 

This is the latest recevied weather packets stored in our database for station/object N9BLE. If no packets are shown the sender has not sent any weather packets the latest 10 day(s).

<< 33 34 35 36 37 38 39 >>
Time Temp. Humidity Pressure Rain* Wind** Luminosity Snow
1777818720 11.11° C 70% 1017.8 hPa 0 mm - 39 W/m² -
1777818416 11.67° C 65% 1017.4 hPa 0 mm - 42 W/m² -
1777818113 11.67° C 65% 1017.4 hPa 0 mm - 108 W/m² -
1777817810 11.67° C 66% 1017 hPa 0 mm - 127 W/m² -
1777817507 11.67° C 65% 1017.2 hPa 0 mm - 137 W/m² -
1777817203 11.11° C 67% 1017.1 hPa 0 mm - 109 W/m² -
1777816902 11.11° C 65% 1017 hPa 0 mm - 76 W/m² -
1777816598 11.11° C 67% 1017.1 hPa 0 mm - 62 W/m² -
1777816295 11.11° C 67% 1017.2 hPa 0 mm - 111 W/m² -
1777815992 10.56° C 71% 1017.3 hPa 0 mm - 90 W/m² -
1777815690 10° C 70% 1017.4 hPa 0 mm - 112 W/m² -
1777815387 9.44° C 69% 1017.6 hPa 0 mm - 95 W/m² -
1777815084 9.44° C 68% 1017.8 hPa 0 mm - 68 W/m² -
1777814780 8.89° C 71% 1018 hPa 0 mm - 81 W/m² -
1777814477 8.89° C 73% 1018.1 hPa 0 mm - 114 W/m² -
1777814174 8.33° C 73% 1017.9 hPa 0 mm - 133 W/m² -
1777813871 8.33° C 73% 1018 hPa 0 mm - 113 W/m² -
1777813569 7.78° C 73% 1018 hPa 0 mm - 99 W/m² -
1777813266 7.78° C 75% 1018.1 hPa 0 mm - 94 W/m² -
1777812963 7.78° C 76% 1018 hPa 0 mm - 89 W/m² -
1777812661 7.22° C 76% 1018 hPa 0 mm - 83 W/m² -
1777812357 7.22° C 76% 1017.9 hPa 0 mm - 70 W/m² -
1777812055 7.22° C 76% 1017.9 hPa 0 mm - 64 W/m² -
1777811754 7.22° C 76% 1017.7 hPa 0 mm - 63 W/m² -
1777811450 6.67° C 76% 1017.9 hPa 0 mm - 60 W/m² -

* Rain latest hour (hover to see other rain measurements)
** Current wind speed in m/s (hover to see current wind gust speed)